Weather History for Nebraska City, NE

Change the Weather History Date:

Monday, September 30, 2013

  Actual Average (KSDA) Record (KSDA)
Temperature  
Mean Temperature 64 °F -  
Max Temperature 81 °F 76 °F 136 °F (1997)
Min Temperature 48 °F 49 °F 25 °F (1984)
Growing Degree Days 14 (Base 50)    
Moisture  
Dew Point 49 °F    
Average Humidity 63    
Maximum Humidity 100    
Minimum Humidity 29    
Precipitation  
Precipitation 0.00 in - - ()
Sea Level Pressure  
Sea Level Pressure 29.83 in    
Wind  
Wind Speed 10 mph (SSW)    
Max Wind Speed 20 mph    
Max Gust Speed 24 mph    
Visibility 10 miles    
Events      
Averages and records for this station are not official NWS values.
T = Trace of Precipitation, MM = Missing Value Source: NWS Daily Summary

Daily Weather History Graph

Daily Weather History Graph

Search for Another Location

Airport:

Trip Planner

Search our weather history database for the weather conditions in past years. The results will help you decide how hot, cold, wet, or windy it might be!

Date:

Astronomy

Sep. 30, 2013 Rise Set
Actual Time 7:19 AM CDT 7:06 PM CDT
Civil Twilight 6:51 AM CDT 7:33 PM CDT
Nautical Twilight 6:20 AM CDT 8:05 PM CDT
Astronomical Twilight 5:48 AM CDT 8:37 PM CDT
Moon 2:56 AM CDT (9/30) 4:39 PM CDT (9/30)
Length of Visible Light 12h 41m
Length of Day
11h 47m
Waning Crescent, 19% of the Moon is Illuminated
Sep 30
Waning Crescent
Oct 4
New
Oct 11
First Quarter
Oct 18
Full
Oct 26
Last Quarter

Hourly Weather History & Observations

Time (CDT) Temp. Dew Point Humidity Pressure Visibility Wind Dir Wind Speed Gust Speed Precip Events Conditions
12:15 AM 53.6 °F 47.3 °F 79% 29.94 in 10.0 mi SSW 6.9 mph - N/A   Clear
12:35 AM 53.1 °F 46.9 °F 80% 29.93 in 10.0 mi South 8.1 mph - N/A   Clear
12:55 AM 52.3 °F 47.3 °F 83% 29.92 in 10.0 mi South 9.2 mph - N/A   Clear
1:15 AM 51.8 °F 47.3 °F 85% 29.92 in 10.0 mi South 8.1 mph - N/A   Clear
1:35 AM 52.0 °F 47.7 °F 85% 29.90 in 10.0 mi South 10.4 mph - N/A   Clear
1:55 AM 52.3 °F 47.7 °F 84% 29.90 in 10.0 mi South 8.1 mph - N/A   Clear
2:15 AM 52.2 °F 47.7 °F 85% 29.90 in 10.0 mi South 8.1 mph - N/A   Clear
2:35 AM 51.6 °F 47.5 °F 86% 29.90 in 10.0 mi South 8.1 mph - N/A   Clear
2:55 AM 52.2 °F 47.7 °F 85% 29.89 in 10.0 mi South 9.2 mph - N/A   Clear
3:15 AM 52.7 °F 47.8 °F 84% 29.89 in 10.0 mi South 9.2 mph - N/A   Clear
3:35 AM 52.7 °F 47.7 °F 83% 29.89 in 10.0 mi SSW 8.1 mph - N/A   Clear
3:55 AM 52.0 °F 47.5 °F 85% 29.88 in 10.0 mi SSW 8.1 mph - N/A   Clear
4:15 AM 51.6 °F 47.3 °F 85% 29.88 in 10.0 mi South 8.1 mph - N/A   Clear
4:35 AM 50.9 °F 46.9 °F 86% 29.88 in 10.0 mi South 6.9 mph - N/A   Clear
4:55 AM 50.0 °F 46.6 °F 88% 29.88 in 10.0 mi South 9.2 mph - N/A   Clear
5:15 AM 49.5 °F 47.3 °F 92% 29.88 in 10.0 mi South 9.2 mph - N/A   Clear
5:35 AM 49.5 °F 47.5 °F 93% 29.88 in 10.0 mi South 6.9 mph - N/A   Clear
5:55 AM 48.9 °F 48.2 °F 97% 29.87 in 10.0 mi South 8.1 mph - N/A   Clear
6:15 AM 49.1 °F 49.1 °F 100% 29.87 in 10.0 mi South 8.1 mph - N/A   Clear
6:35 AM 49.1 °F 49.1 °F 100% 29.87 in 10.0 mi South 5.8 mph - N/A   Clear
6:55 AM 49.1 °F 49.1 °F 100% 29.87 in 10.0 mi South 6.9 mph - N/A   Clear
7:15 AM 49.1 °F 49.1 °F 100% 29.87 in 10.0 mi South 5.8 mph - N/A   Clear
7:35 AM 48.9 °F 48.9 °F 100% 29.87 in 10.0 mi South 5.8 mph - N/A   Clear
7:55 AM 50.2 °F 50.2 °F 100% 29.87 in 10.0 mi South 8.1 mph - N/A   Clear
8:15 AM 51.3 °F 50.9 °F 99% 29.87 in 10.0 mi SSW 6.9 mph - N/A   Clear
8:35 AM 52.9 °F 51.8 °F 96% 29.87 in 10.0 mi South 8.1 mph - N/A   Clear
8:55 AM 54.7 °F 50.4 °F 85% 29.86 in 10.0 mi SSW 8.1 mph - N/A   Clear
9:15 AM 56.8 °F 50.5 °F 79% 29.86 in 10.0 mi SSW 9.2 mph - N/A   Clear
9:35 AM 59.2 °F 51.3 °F 75% 29.86 in 10.0 mi South 9.2 mph - N/A   Clear
9:55 AM 61.9 °F 51.8 °F 69% 29.86 in 10.0 mi SSW 12.7 mph - N/A   Clear
10:15 AM 64.0 °F 52.2 °F 65% 29.86 in 10.0 mi SSW 12.7 mph - N/A   Clear
10:35 AM 65.3 °F 51.4 °F 61% 29.86 in 10.0 mi SSW 15.0 mph - N/A   Clear
10:55 AM 66.2 °F 51.8 °F 60% 29.85 in 10.0 mi SSW 11.5 mph 19.6 mph N/A   Clear
11:15 AM 68.7 °F 51.4 °F 54% 29.85 in 10.0 mi SSW 15.0 mph 20.7 mph N/A   Clear
11:35 AM 70.0 °F 50.5 °F 50% 29.84 in 10.0 mi SSW 16.1 mph 20.7 mph N/A   Clear
11:55 AM 68.9 °F 50.7 °F 52% 29.84 in 10.0 mi SSW 12.7 mph - N/A   Clear
12:15 PM 71.6 °F 51.4 °F 49% 29.84 in 10.0 mi SSW 10.4 mph - N/A   Clear
12:35 PM 74.1 °F 51.8 °F 46% 29.83 in 10.0 mi SSW 11.5 mph 17.3 mph N/A   Clear
12:55 PM 75.9 °F 49.5 °F 39% 29.82 in 10.0 mi SSW 13.8 mph 18.4 mph N/A   Clear
1:15 PM 76.5 °F 47.8 °F 36% 29.81 in 10.0 mi SW 13.8 mph 21.9 mph N/A   Clear
1:35 PM 78.3 °F 49.1 °F 36% 29.81 in 10.0 mi SSW 15.0 mph 20.7 mph N/A   Clear
1:55 PM 78.8 °F 47.7 °F 33% 29.80 in 10.0 mi SSW 15.0 mph 24.2 mph N/A   Clear
2:15 PM 79.5 °F 47.1 °F 32% 29.79 in 10.0 mi SW 15.0 mph 21.9 mph N/A   Clear
2:35 PM 80.1 °F 46.9 °F 31% 29.79 in 10.0 mi SSW 19.6 mph 23.0 mph N/A   Clear
2:55 PM 79.9 °F 47.1 °F 32% 29.79 in 10.0 mi South 17.3 mph 24.2 mph N/A   Clear
3:15 PM 80.8 °F 46.9 °F 30% 29.78 in 10.0 mi SSW 15.0 mph 20.7 mph N/A   Clear
3:35 PM 81.1 °F 46.8 °F 30% 29.77 in 10.0 mi SSW 17.3 mph 24.2 mph N/A   Clear
3:55 PM 81.7 °F 47.1 °F 30% 29.77 in 10.0 mi South 16.1 mph 21.9 mph N/A   Clear
4:15 PM 81.7 °F 46.0 °F 29% 29.76 in 10.0 mi SSW 18.4 mph 24.2 mph N/A   Clear
4:35 PM 81.5 °F 46.9 °F 30% 29.75 in 10.0 mi South 16.1 mph - N/A   Clear
4:55 PM 80.6 °F 47.3 °F 31% 29.75 in 10.0 mi SSW 17.3 mph - N/A   Clear
5:15 PM 79.7 °F 46.0 °F 30% 29.75 in 10.0 mi SSW 17.3 mph 24.2 mph N/A   Clear
5:35 PM 79.2 °F 47.3 °F 33% 29.75 in 10.0 mi South 13.8 mph 19.6 mph N/A   Clear
5:55 PM 78.8 °F 47.3 °F 33% 29.75 in 10.0 mi South 12.7 mph 21.9 mph N/A   Clear
6:15 PM 77.0 °F 47.1 °F 35% 29.75 in 10.0 mi South 15.0 mph - N/A   Clear
6:35 PM 75.6 °F 47.1 °F 36% 29.75 in 10.0 mi South 11.5 mph - N/A   Clear
6:55 PM 74.1 °F 46.8 °F 38% 29.75 in 10.0 mi South 11.5 mph - N/A   Clear
7:15 PM 72.9 °F 46.9 °F 40% 29.75 in 10.0 mi South 12.7 mph - N/A   Clear
7:35 PM 70.5 °F 47.8 °F 44% 29.75 in 10.0 mi South 9.2 mph - N/A   Clear
7:55 PM 68.7 °F 48.7 °F 49% 29.75 in 10.0 mi South 11.5 mph - N/A   Clear
8:15 PM 67.5 °F 49.1 °F 52% 29.76 in 10.0 mi South 11.5 mph - N/A   Clear
8:35 PM 68.0 °F 48.9 °F 50% 29.77 in 10.0 mi South 11.5 mph - N/A   Clear
8:55 PM 67.3 °F 49.1 °F 52% 29.77 in 10.0 mi South 11.5 mph - N/A   Clear
9:15 PM 66.4 °F 49.3 °F 54% 29.78 in 10.0 mi South 11.5 mph - N/A   Clear
9:35 PM 65.3 °F 49.5 °F 57% 29.78 in 10.0 mi South 10.4 mph - N/A   Clear
9:55 PM 65.5 °F 49.5 °F 56% 29.78 in 10.0 mi South 11.5 mph - N/A   Clear
10:15 PM 65.3 °F 49.5 °F 57% 29.79 in 10.0 mi South 11.5 mph - N/A   Clear
10:35 PM 64.4 °F 49.5 °F 58% 29.79 in 10.0 mi SSW 12.7 mph - N/A   Clear
10:55 PM 64.0 °F 49.5 °F 59% 29.79 in 10.0 mi SSW 11.5 mph - N/A   Clear
11:15 PM 63.9 °F 49.5 °F 59% 29.80 in 10.0 mi SSW 13.8 mph - N/A   Clear
11:35 PM 63.5 °F 49.5 °F 60% 29.80 in 10.0 mi SSW 11.5 mph - N/A   Clear
11:55 PM 63.7 °F 49.6 °F 60% 29.80 in 10.0 mi SSW 15.0 mph - N/A   Clear